Simultaneous Nadir Overpasses (SNOs) Predictions

Prediction of SNOs between GOES-16 and NOAA-20 Satellite Orbit:

Table of predicted SNOs for the next 14.0 days since TLE Epoch: 9/21/2024
Index Date Time (GOES-16) GOES-16 Lat,Lon NOAA-20 Lat,Lon Distance(km) Time Diff (sec)
1 09/21/2024 18:21:29 -0.07, -75.21 0.21, -74.11 125.96 80
2 09/23/2024 06:40:32 0.06, -75.20 1.02, -79.35 474.10 80
3 09/24/2024 06:24:26 0.06, -75.20 -0.04, -74.82 43.74 80
4 09/26/2024 18:24:51 -0.05, -75.23 -0.11, -75.57 38.88 80
5 09/27/2024 18:08:43 -0.05, -75.24 0.90, -71.03 479.72 80
6 09/29/2024 06:30:27 0.04, -75.25 0.26, -76.29 118.55 80
7 09/30/2024 06:09:00 0.04, -75.27 -0.76, -71.75 400.66 80
8 10/01/2024 18:30:51 -0.03, -75.30 -0.43, -77.04 198.02 80
9 10/02/2024 18:14:44 -0.03, -75.32 0.59, -72.50 321.79 80
10 10/04/2024 06:36:28 0.03, -75.35 0.55, -77.76 274.87 80
